TimeCST,TemperatureF,Dew PointF,Humidity,Sea Level PressureIn,VisibilityMPH,Wind Direction,Wind SpeedMPH,Gust SpeedMPH,PrecipitationIn,Events,Conditions,WindDirDegrees,DateUTC
12:52 AM,28.0,19.9,72,30.04,10.0,SSE,8.1,-,N/A,,Clear,160,2013-03-07 06:52:00
1:52 AM,27.0,19.9,75,30.03,10.0,SSE,11.5,-,N/A,,Clear,150,2013-03-07 07:52:00
2:52 AM,26.1,19.9,78,30.02,10.0,SE,9.2,-,N/A,,Clear,140,2013-03-07 08:52:00
3:52 AM,26.1,21.0,81,30.00,10.0,SSE,8.1,-,N/A,,Clear,160,2013-03-07 09:52:00
4:52 AM,25.0,21.0,85,29.99,10.0,South,11.5,-,N/A,,Clear,170,2013-03-07 10:52:00
5:52 AM,27.0,21.9,81,29.99,10.0,South,9.2,-,N/A,,Clear,180,2013-03-07 11:52:00
6:52 AM,26.6,21.2,80,29.92,10.0,South,13.8,-,N/A,,Clear,180,2013-03-07 12:52:00
7:52 AM,28.0,23.0,81,30.03,10.0,SSW,11.5,19.6,N/A,,Clear,210,2013-03-07 13:52:00
8:52 AM,30.2,24.8,80,29.94,10.0,SSW,16.1,-,N/A,,Clear,200,2013-03-07 14:52:00
9:52 AM,36.0,26.1,67,30.00,10.0,SSW,11.5,-,N/A,,Clear,200,2013-03-07 15:52:00
10:52 AM,43.0,27.0,53,29.99,10.0,SSW,15.0,-,N/A,,Clear,200,2013-03-07 16:52:00
11:52 AM,48.9,28.0,44,29.99,10.0,SSW,11.5,-,N/A,,Clear,210,2013-03-07 17:52:00
12:52 PM,54.0,28.0,37,29.97,10.0,SSW,5.8,-,N/A,,Clear,200,2013-03-07 18:52:00
1:52 PM,57.9,28.0,32,29.96,10.0,SW,5.8,-,N/A,,Clear,220,2013-03-07 19:52:00
2:52 PM,61.0,28.9,30,29.95,10.0,Calm,Calm,-,N/A,,Clear,0,2013-03-07 20:52:00
3:52 PM,63.0,28.9,28,29.96,10.0,Variable,3.5,-,N/A,,Clear,0,2013-03-07 21:52:00
4:52 PM,59.0,27.0,29,29.99,10.0,North,10.4,-,N/A,,Clear,10,2013-03-07 22:52:00
5:52 PM,55.0,28.0,35,30.01,10.0,NNE,5.8,-,N/A,,Clear,30,2013-03-07 23:52:00
6:52 PM,48.9,27.0,43,30.05,10.0,North,8.1,-,N/A,,Clear,360,2013-03-08 00:52:00
7:52 PM,46.0,27.0,47,30.08,10.0,NNE,6.9,-,N/A,,Clear,20,2013-03-08 01:52:00
8:52 PM,37.9,26.1,62,30.11,10.0,Calm,Calm,-,N/A,,Clear,0,2013-03-08 02:52:00
9:52 PM,39.0,27.0,62,30.12,10.0,NNE,6.9,-,N/A,,Clear,20,2013-03-08 03:52:00
10:52 PM,34.0,26.1,73,30.13,10.0,Calm,Calm,-,N/A,,Clear,0,2013-03-08 04:52:00
11:52 PM,32.0,24.8,75,30.09,10.0,Calm,Calm,-,N/A,,Clear,0,2013-03-08 05:52:00